ETD3KP OMDB-OOMS

Flight info

Callsign ETD3KP
Flight time N/A
Altitude 23000
Route ANVIX L223 TARDI N629 MUSUK T511 MCT
Aircraft A320/M-SDE3FGHIRWY/LB1

Departure

Time N/A
Airport Dubai International Airport (OMDB)

Arrival

Time 2026-05-07 15:39
Airport Muscat International Airport (OOMS)
Time Latitude Longitude Altitude Speed Heading
2026-05-07 15:18 24.22838 56.60587 22790 ft 419 kts 125°
2026-05-07 15:19 24.21146 56.63227 22794 ft 419 kts 125°
2026-05-07 15:19 24.19457 56.65830 22797 ft 419 kts 126°
2026-05-07 15:19 24.17742 56.68435 22795 ft 419 kts 126°
2026-05-07 15:19 24.16036 56.70998 22813 ft 419 kts 126°
2026-05-07 15:20 24.14301 56.73587 22812 ft 419 kts 126°
2026-05-07 15:20 24.12586 56.76144 22818 ft 419 kts 126°
2026-05-07 15:20 24.10850 56.78736 22814 ft 419 kts 126°
2026-05-07 15:20 24.09158 56.81268 22825 ft 419 kts 126°
2026-05-07 15:21 24.07413 56.83879 22832 ft 419 kts 126°
2026-05-07 15:21 24.05688 56.86462 22758 ft 416 kts 126°
2026-05-07 15:21 24.04017 56.88965 22501 ft 408 kts 126°
2026-05-07 15:21 24.02356 56.91451 22242 ft 400 kts 126°
2026-05-07 15:22 24.00729 56.93891 21989 ft 395 kts 126°
2026-05-07 15:22 23.99112 56.96311 21724 ft 392 kts 126°
2026-05-07 15:22 23.97514 56.98697 21492 ft 391 kts 126°
2026-05-07 15:22 23.95909 57.01087 21253 ft 389 kts 126°
2026-05-07 15:23 23.94312 57.03464 21002 ft 388 kts 125°
2026-05-07 15:23 23.92718 57.05836 20746 ft 386 kts 125°
2026-05-07 15:23 23.91125 57.08211 20504 ft 383 kts 125°
2026-05-07 15:23 23.89571 57.10529 20137 ft 378 kts 125°
2026-05-07 15:24 23.88019 57.12848 19656 ft 377 kts 125°
2026-05-07 15:24 23.86474 57.15150 19175 ft 376 kts 125°
2026-05-07 15:24 23.84926 57.17451 18677 ft 375 kts 125°
2026-05-07 15:24 23.83382 57.19748 18193 ft 374 kts 125°
2026-05-07 15:25 23.81842 57.22042 17662 ft 373 kts 125°
2026-05-07 15:25 23.80315 57.24315 17163 ft 370 kts 125°
2026-05-07 15:25 23.78792 57.26573 16674 ft 367 kts 125°
2026-05-07 15:25 23.77281 57.28813 16177 ft 364 kts 125°
2026-05-07 15:26 23.75784 57.31034 15693 ft 361 kts 125°
2026-05-07 15:26 23.74305 57.33228 15253 ft 358 kts 125°
2026-05-07 15:26 23.72987 57.35518 14790 ft 353 kts 115°
2026-05-07 15:26 23.72158 57.38016 14340 ft 349 kts 102°
2026-05-07 15:27 23.71810 57.40593 14086 ft 339 kts 96°
2026-05-07 15:27 23.71565 57.43135 13679 ft 336 kts 96°
2026-05-07 15:27 23.71316 57.45665 13212 ft 334 kts 96°
2026-05-07 15:27 23.71066 57.48178 12781 ft 334 kts 96°
2026-05-07 15:28 23.70815 57.50712 12334 ft 334 kts 96°
2026-05-07 15:28 23.70566 57.53237 11901 ft 335 kts 96°
2026-05-07 15:28 23.70320 57.55744 11474 ft 335 kts 96°
2026-05-07 15:28 23.70068 57.58280 11033 ft 337 kts 96°
2026-05-07 15:29 23.69817 57.60792 10603 ft 337 kts 95°
2026-05-07 15:29 23.69560 57.63369 10286 ft 336 kts 95°
2026-05-07 15:29 23.69311 57.65888 10186 ft 339 kts 96°
2026-05-07 15:29 23.69058 57.68453 10037 ft 340 kts 96°
2026-05-07 15:30 23.68798 57.71067 9392 ft 347 kts 96°
2026-05-07 15:30 23.68537 57.73697 8770 ft 349 kts 95°
2026-05-07 15:30 23.68279 57.76305 8185 ft 351 kts 96°
2026-05-07 15:30 23.68013 57.78983 7586 ft 352 kts 96°
2026-05-07 15:31 23.67751 57.81608 7000 ft 342 kts 96°
2026-05-07 15:31 23.67492 57.84157 6430 ft 330 kts 96°
2026-05-07 15:31 23.67248 57.86551 6128 ft 317 kts 96°
2026-05-07 15:31 23.66977 57.88896 5997 ft 306 kts 102°
2026-05-07 15:32 23.66210 57.90970 5878 ft 287 kts 124°
2026-05-07 15:32 23.64933 57.92529 5737 ft 267 kts 138°
2026-05-07 15:32 23.63590 57.93880 5357 ft 259 kts 138°
2026-05-07 15:32 23.62274 57.95206 4891 ft 257 kts 138°
2026-05-07 15:33 23.60966 57.96526 4428 ft 255 kts 137°
2026-05-07 15:33 23.59671 57.97836 3953 ft 252 kts 137°
2026-05-07 15:33 23.58411 57.99158 3484 ft 250 kts 129°
2026-05-07 15:33 23.57541 58.00777 3271 ft 248 kts 108°
2026-05-07 15:34 23.57230 58.02583 3245 ft 239 kts 88°
2026-05-07 15:34 23.57344 58.04343 3227 ft 229 kts 83°
2026-05-07 15:34 23.57486 58.06054 3230 ft 224 kts 83°
2026-05-07 15:34 23.57623 58.07722 3247 ft 220 kts 83°
2026-05-07 15:35 23.57759 58.09380 3030 ft 218 kts 83°
2026-05-07 15:35 23.57893 58.11018 2765 ft 216 kts 83°
2026-05-07 15:35 23.58026 58.12637 2478 ft 214 kts 83°
2026-05-07 15:35 23.58158 58.14255 2210 ft 213 kts 82°
2026-05-07 15:36 23.58284 58.15819 1941 ft 201 kts 82°
2026-05-07 15:36 23.58401 58.17266 1715 ft 180 kts 83°
2026-05-07 15:36 23.58504 58.18540 1501 ft 160 kts 83°
2026-05-07 15:36 23.58600 58.19714 1308 ft 153 kts 82°
2026-05-07 15:37 23.58693 58.20851 1116 ft 150 kts 83°
2026-05-07 15:37 23.58786 58.21985 926 ft 149 kts 83°
2026-05-07 15:37 23.58877 58.23108 769 ft 148 kts 84°
2026-05-07 15:37 23.58967 58.24221 608 ft 146 kts 85°
2026-05-07 15:38 23.59056 58.25325 431 ft 146 kts 85°
2026-05-07 15:38 23.59143 58.26424 241 ft 146 kts 85°
2026-05-07 15:38 23.59230 58.27530 57 ft 146 kts 85°
2026-05-07 15:38 23.59305 58.28415 39 ft 64 kts 84°
2026-05-07 15:39 23.59342 58.28821 38 ft 52 kts 84°
2026-05-07 15:39 23.59372 58.29151 37 ft 31 kts 85°
2026-05-07 15:39 23.59384 58.29391 38 ft 33 kts 86°
2026-05-07 15:39 23.59382 58.29626 37 ft 26 kts 123°
2026-05-07 15:40 23.59239 58.29672 37 ft 20 kts 173°
2026-05-07 15:40 23.59194 58.29572 37 ft 18 kts 267°
2026-05-07 15:40 23.59185 58.29424 37 ft 21 kts 263°
2026-05-07 15:40 23.59133 58.29364 37 ft 0 kts 186°
2026-05-07 15:41 23.59120 58.29364 37 ft 5 kts 180°
2026-05-07 15:41 23.59077 58.29366 37 ft 7 kts 177°
2026-05-07 15:41 23.59032 58.29361 37 ft 7 kts 184°
2026-05-07 15:41 23.58985 58.29327 36 ft 10 kts 236°
2026-05-07 15:42 23.58996 58.29251 36 ft 11 kts 320°
2026-05-07 15:42 23.59035 58.29284 37 ft 6 kts 83°
2026-05-07 15:42 23.59038 58.29307 36 ft 0 kts 84°